星链-33615 (STARLINK-33615)

导读 | 豆包AI

STARLINK-33615是美国SpaceX公司星链(Starlink)星座的第二代成员,于2025年3月31日发射入轨。它属于低轨通信卫星,运行于340-614公里近地轨道,配备增强型相控阵天线与激光星间链路,采用氪离子推进系统,支持Ku/Ka/E多频段通信,单星容量超100Gbps,可为全球用户提供百兆至千兆级低延迟宽带互联网服务,是星链大规模扩展全球覆盖的重要组网卫星。

基本信息
目录编号:
63426
目录名称:
STARLINK-33615
国际标识:
2025-065AD
轨道中心:
EARTH
卫星名称:
星链-33615
卫星全名:
星链-33615 (STARLINK-33615)
卫星状态:
在轨 (已飞行348 天)
发射日期:
2025-03-31 UTC
国别 :
美国 (US)
星等 :
--
轨道信息
数据来源 国际轨道数据
星历时间: 2026-03-14T18:44:42+0800
11小时前
查看轨道信息
半长轴: 6861.087km
偏心率: 0.0001304
轨道倾角: 42.999°
近地点辐角 261.461°
升交点赤经 80.496°
平近点角 98.610°
近地点: 482.055km
远地点: 483.845km
周期: 94.265分钟
每日圈数: 15.276131
详细信息
固有亮度:
5
最大亮度:
2.5
卫星平台:
Starlink V1.0
覆盖范围:
全球
运营商:
太空探索技术公司
运营商所在国:
美国
制造商(研发单位):
太空探索技术公司
制造商所在国:
美国
使用方式:
暂无
卫星简介
Starlink 计划是 SpaceX 推出的全球卫星互联网项目,通过发射低轨道卫星,为全球尤其是偏远地区提供高速、低延迟的互联网服务。自 2019 年起,Starlink 已部署数千颗卫星,旨在缩小全球数字鸿沟,推动互联网普及。该项目还为军事、航空等行业提供通信支持,带来广泛经济效益。
2D轨道图
3D轨道图
轨道高度分析图
轨道倾角分析图
轨道综合分析图
查看轨道综合分析图